Location: Keewatin
(47.4004°N, 93.0827°W)
Time: 00:21:28
(UTC+00:00)

Envisat - Pass Details

Date: 14 December 2019
Orbit: 764 x 766 km, 98.1° (Epoch: 21 January)

Event Time Altitude Azimuth Distance (km) Brightness Sun altitude
Rises 00:05:23 0° 167° (SSE) 3,220 6.3 -16.6°
Reaches altitude 10° 00:07:41 10° 169° (SSE) 2,299 5.5 -17.0°
Maximum altitude 00:12:45 80° 256° (WSW) 783 3.1 -17.8°
Drops below altitude 10° 00:17:53 10° 344° (NNW) 2,315 5.5 -18.7°
Sets 00:20:12 0° 346° (NNW) 3,246 6.3 -19.1°
